User: anonymous   Login
Location: Unspecified
(0.0000°N, 0.0000°E)
Time: 11:51:21
(UTC+02:00)
Language:

Cosmos 2219 - Orbit

View from above orbital plane
View from above orbital plane
View from above satellite
View from above satellite

Ground track
Ground track

The orbit data is extracted from the following two-line orbital elements,

1 22219U 92076A   15146.56209532 -.00000038  00000-0  46116-5 0  9994
2 22219 071.0581 329.7834 0016485 100.4000 259.8981 14.13543479161859
Epoch (UTC): 26 May 2015 13:29:25
Eccentricity: 0.0016485
inclination: 71.0581°
perigee height: 835 km
apogee height: 859 km
right ascension of ascending node: 329.7834°
argument of perigee: 100.4000°
revolutions per day: 14.13543479
mean anomaly at epoch: 259.8981°
orbit number at epoch: 16185

The dashed part of the orbit path shows where the satellite is in the earth's shadow,  

DLR